Location: Pedholt
(56.0260°N, 10.2097°E)
Time: 05:38:34
(UTC+00:00)

Vanguard 3 - Pass Details

Date: 03 August 2021
Orbit: 510 x 3260 km, 33.3° (Epoch: 19 September)

Event Time Altitude Azimuth Distance (km) Brightness Sun altitude
Rises 19:57:17 0° 255° (WSW) 6,290 12.2 -4.7°
Reaches altitude 10° 20:01:48 10° 246° (WSW) 5,592 11.8 -5.2°
Maximum altitude 20:16:08 31° 194° (SSW) 4,609 10.7 -6.6°
Drops below altitude 10° 20:31:34 10° 142° (SE) 6,000 10.9 -8.1°
Enters shadow 20:32:09 - 141° (SE) 6,087 10.9 -8.2°
